Theta_e
335 333 330 327 327 329 330 330 326 321 323 337 333 338 337 338 337 338 342 338 335 335 336 337 338 342 345 346 347 347 348 348 350 348 349 349 353 356
328 329 331 327 328 329 329 329 330 326 321 329 330 335 335 332 335 335 337 340 335 337 338 337 338 339 341 344 346 346 345 346 346 346 347 347 345 347
328 329 329 333 328 330 330 329 328 327 324 327 329 332 332 327 328 330 331 334 336 336 334 334 334 336 339 342 343 343 343 343 343 345 346 345 344 345
327 328 328 327 330 333 329 330 327 329 327 325 330 325 326 327 327 329 326 327 334 333 332 333 332 333 331 330 332 335 336 337 338 340 341 343 343 343
327 327 327 328 328 327 328 326 327 325 326 323 323 322 323 324 327 330 327 332 333 334 331 331 332 329 327 325 324 323 322 325 328 329 333 336 339 341
326 327 328 328 328 328 325 326 326 326 325 321 321 321 320 326 323 319 318 321 326 323 333 332 332 331 327 326 326 325 322 321 321 322 324 326 328 332
325 325 324 321 319 320 322 326 328 325 320 319 319 318 319 320 319 319 316 318 327 323 321 325 329 332 326 324 325 323 322 323 321 319 318 319 322 325
323 322 323 322 319 317 318 318 320 323 323 319 317 317 320 319 320 318 317 315 313 323 320 319 322 326 328 322 320 322 320 319 318 319 317 316 317 318
325 324 322 318 323 325 317 316 315 315 316 324 320 318 319 320 322 322 321 320 316 318 319 313 321 319 322 319 321 321 320 319 317 316 316 315 314 314
325 324 324 323 323 323 325 322 322 323 322 319 321 319 319 320 321 322 325 326 324 321 324 310 317 315 319 322 322 320 318 318 317 316 315 313 311 310
325 325 324 323 317 314 323 322 321 322 317 319 319 317 319 320 318 316 316 314 313 314 321 313 313 313 315 319 320 323 319 317 316 315 315 313 311 310
326 326 321 321 320 315 320 321 321 323 324 319 319 318 320 322 322 323 317 313 313 312 318 314 311 312 309 317 318 320 321 317 316 316 314 312 310 320
323 322 324 318 318 317 315 320 320 322 323 320 321 322 324 323 320 322 323 317 313 313 317 316 312 311 310 310 314 317 318 318 318 317 311 310 310 311
321 321 322 316 316 316 314 317 318 316 318 318 318 319 318 318 322 322 324 322 321 320 324 322 314 311 309 308 308 314 316 318 318 318 319 315 311 315
323 317 316 316 313 312 312 314 315 316 317 317 319 320 321 322 325 327 328 331 330 326 322 327 316 316 311 308 308 310 310 314 317 318 317 317 315 317
320 322 321 320 317 318 318 319 320 321 320 320 317 318 321 320 323 322 321 317 314 314 326 326 324 317 312 311 311 309 311 309 314 316 317 316 317 317
323 325 323 320 320 323 319 320 321 323 322 321 321 320 319 321 320 321 319 316 313 312 312 313 323 323 316 318 310 312 311 311 313 315 317 313 315 316
322 322 321 323 320 322 320 319 323 321 321 320 321 321 317 317 317 319 319 315 312 312 311 311 311 310 311 315 318 311 312 311 312 315 316 310 311 315
318 318 319 320 321 323 322 320 319 322 329 321 320 320 318 319 317 314 316 315 312 311 311 311 309 308 305 304 312 308 311 311 311 310 310 311 310 312
316 318 319 319 320 323 321 321 323 319 326 320 321 318 318 315 313 315 315 313 311 310 309 309 308 308 306 306 307 309 307 311 310 310 310 311 314 314
322 319 323 317 322 324 319 325 322 319 318 319 319 317 315 316 316 314 313 306 307 308 306 307 310 311 311 312 306 307 312 307 313 314 313 309 307 308
322 322 320 324 325 325 324 324 321 321 320 318 318 318 317 315 313 312 311 309 309 309 309 310 314 311 309 307 305 309 308 312 311 310 309 310 309 305
326 325 324 326 325 323 322 321 318 317 318 316 314 314 314 312 313 312 310 310 309 309 309 308 309 309 308 307 306 306 311 312 310 310 311 310 309 309
Wind_Speed
4 4 6 3 4 3 3 3 5 7 3 7 4 5 5 4 8 7 6 9 5 5 5 5 6 6 10 12 11 10 12 10 13 13 15 13 23 24
5 3 6 4 1 2 3 3 2 5 6 3 7 7 4 7 8 8 9 5 6 6 9 9 7 7 9 12 12 13 15 17 15 17 16 14 17 13
3 3 4 4 5 2 2 3 3 5 5 6 3 7 4 6 6 7 7 7 7 8 10 8 8 10 7 4 9 10 10 10 10 10 18 16 19 16
5 3 4 3 3 2 3 3 5 3 7 0 4 3 4 5 3 4 5 7 2 10 10 7 8 9 14 15 12 5 4 7 8 8 12 15 16 16
5 4 4 3 4 5 6 6 2 3 2 3 2 4 2 4 6 4 2 4 6 10 10 8 12 11 12 13 11 10 8 6 5 7 10 11 12 11
5 4 4 4 4 4 4 1 3 5 2 4 1 1 4 5 6 6 6 6 5 7 4 3 11 9 9 13 12 11 9 8 7 7 6 9 9 7
6 6 8 7 6 7 7 7 6 6 5 3 3 4 6 8 6 7 6 7 5 5 7 4 8 5 4 12 9 12 10 9 9 9 9 6 5 8
6 6 7 6 4 5 6 6 5 6 5 6 7 6 5 7 6 7 6 7 6 8 7 6 2 3 2 7 6 6 6 7 8 7 8 8 8 7
5 4 7 8 3 7 4 3 2 1 3 4 5 6 6 6 7 8 5 6 5 4 5 8 3 5 3 8 10 9 7 3 4 5 6 7 7 8
5 3 0 4 5 6 4 4 4 8 4 1 4 4 5 4 6 8 8 9 10 3 3 6 5 6 6 7 12 10 9 7 3 0 2 5 6 8
5 4 2 3 9 1 7 4 3 7 9 5 4 6 8 9 7 6 6 7 5 2 6 5 7 7 7 1 7 13 10 8 8 7 5 5 7 12
9 6 7 4 8 4 5 7 6 4 6 8 8 10 12 11 11 5 6 8 7 5 6 6 7 7 8 2 4 2 7 10 12 10 8 6 5 5
7 9 8 11 10 8 7 7 8 9 9 8 10 11 9 9 9 4 2 5 8 7 6 6 6 7 7 8 7 7 3 3 5 5 10 10 9 2
4 3 10 13 10 9 8 11 6 6 8 10 10 7 5 3 4 4 1 3 5 6 7 3 5 7 8 8 8 7 6 5 6 4 4 3 13 8
5 7 9 9 8 9 14 14 10 9 10 10 7 6 3 6 2 6 5 9 9 9 9 7 4 6 7 8 8 8 8 6 6 3 6 5 7 6
9 8 8 9 8 9 6 10 10 11 8 9 9 8 4 2 4 6 5 5 6 7 5 7 6 4 6 8 8 8 8 8 7 5 4 6 8 5
10 10 9 6 6 9 6 7 7 10 12 8 7 7 7 2 4 6 7 6 7 7 6 5 8 8 7 8 8 8 7 7 7 5 4 6 7 6
10 9 8 9 6 8 6 6 7 8 8 6 5 4 3 2 5 7 3 6 8 6 7 7 6 7 8 9 17 8 6 6 6 7 6 8 8 6
8 10 10 6 8 8 8 7 9 10 2 7 5 3 3 4 7 6 8 7 7 7 7 6 7 8 9 9 0 1 5 6 7 8 8 8 8 8
10 11 10 10 10 9 4 7 10 8 3 6 6 3 7 5 7 8 7 7 7 7 6 7 8 8 8 7 8 9 12 9 8 8 7 8 7 10
9 8 12 4 11 3 4 6 7 9 6 7 5 8 6 11 8 8 6 2 2 7 9 10 5 3 5 7 9 10 10 17 12 8 6 8 9 9
11 8 4 10 7 8 7 6 6 5 4 6 9 8 6 7 8 6 7 8 8 9 9 7 7 7 8 9 10 11 10 9 9 14 16 13 9 9
8 7 8 5 4 7 9 6 9 7 7 7 6 7 7 7 7 7 8 9 9 9 8 7 8 8 9 9 10 10 13 13 11 9 6 17 22 23
Wind_Direction
100 17 310 17 355 350 327 322 332 301 254 109 142 89 359 13 33 339 333 94 74 76 62 13 344 284 250 241 235 220 234 247 259 259 262 277 247 242
60 30 325 16 299 15 347 345 316 314 299 38 51 46 26 345 23 343 317 213 115 82 64 44 11 314 278 250 232 216 214 223 230 244 240 227 241 244
93 74 58 350 3 69 46 7 8 339 295 34 53 84 28 3 353 336 312 288 129 110 82 57 32 20 20 261 230 214 218 229 238 251 226 221 228 219
101 86 37 52 189 279 112 2 37 46 326 246 60 23 69 3 348 353 329 335 151 124 93 82 64 59 61 57 44 14 301 271 261 245 231 230 226 226
111 101 89 89 29 45 10 351 76 49 330 340 340 72 348 30 342 22 333 280 214 145 136 147 107 101 91 78 67 54 37 21 271 246 249 239 235 230
117 101 76 59 51 39 47 53 42 303 136 277 1 3 39 3 10 7 357 348 31 354 35 231 136 121 109 93 59 38 34 32 32 6 267 249 254 245
120 120 77 63 49 22 346 17 340 342 349 334 352 10 29 344 20 340 3 340 158 48 336 284 144 147 143 73 68 54 30 35 37 29 24 14 282 256
130 121 130 155 115 60 40 33 31 13 46 348 22 6 21 340 5 345 3 346 331 63 338 310 30 200 130 93 101 84 53 41 29 24 15 4 1 343
146 161 233 105 242 149 179 209 188 17 325 11 16 15 335 2 331 321 4 315 318 321 21 315 22 309 22 131 149 137 126 76 45 24 5 351 339 322
163 176 23 133 71 329 296 215 198 186 187 11 34 7 6 335 322 299 281 272 255 220 50 321 351 334 331 135 168 171 153 162 176 177 322 322 314 289
188 193 217 223 132 93 295 263 278 286 153 164 203 207 235 239 272 302 347 304 314 355 76 345 346 334 323 256 181 207 169 192 218 213 252 304 328 312
184 195 178 258 152 173 271 297 291 323 318 178 223 236 239 232 227 260 329 319 319 303 59 339 333 341 323 300 325 228 186 216 231 220 221 261 318 333
207 179 194 183 188 198 227 270 286 333 299 266 256 261 197 192 187 194 86 311 310 315 79 359 325 318 317 313 314 302 331 315 296 235 200 233 243 234
233 187 128 171 190 201 218 252 260 291 268 262 272 267 284 310 68 41 191 271 285 283 297 309 296 317 319 303 303 322 314 335 290 304 323 266 223 217
291 66 99 166 183 214 229 246 243 252 254 263 275 264 266 264 217 274 198 218 230 234 237 209 259 306 296 293 301 309 312 302 301 291 304 352 310 296
255 263 232 224 239 272 235 233 227 236 239 255 287 287 275 267 240 236 234 277 299 296 273 188 212 241 278 292 297 302 302 295 304 302 359 313 291 292
218 228 234 212 222 236 242 287 258 216 225 237 239 281 260 228 234 258 268 264 263 279 291 292 182 218 246 253 271 278 287 292 297 325 330 310 295 296
208 249 251 231 226 251 249 263 288 280 257 259 268 278 199 207 274 305 296 276 287 287 291 289 288 284 281 250 213 255 291 305 311 323 312 285 292 300
241 250 264 275 270 218 251 259 261 262 280 230 233 222 179 253 267 245 274 273 268 278 283 292 291 284 284 286 1 245 292 300 310 298 284 286 306 300
250 257 257 259 267 246 240 266 265 296 271 267 259 237 256 220 247 259 254 275 289 288 297 302 281 269 277 308 326 317 208 262 264 276 295 301 304 301
254 237 238 209 263 294 222 242 256 281 289 292 256 257 214 240 252 270 279 314 295 282 271 261 291 104 294 283 267 262 262 204 236 263 285 282 286 287
254 260 240 234 241 218 235 259 281 284 234 228 235 245 271 278 279 281 275 272 266 249 262 282 283 280 284 276 278 281 274 281 213 224 236 247 268 276
239 239 261 292 281 253 258 272 274 261 260 276 282 280 281 272 262 261 262 260 257 261 271 292 280 273 273 273 275 279 267 255 251 264 252 221 238 245